Weather Roundup
Issued by NWS

Home | Current Version | Previous Version | Graphics & Text | Print | Product List | Glossary Off
Versions: 1 2 3 4 5 6 7 8 9 10 11 12 13 14 15 16 17 18 19 20 21 22 23 24 25 26 27 28 29 30 31 32 33 34 35 36 37 38 39 40 41 42 43 44 45 46 47 48 49 50

000
NZUS93 KARX 061810
HRRWXR

CURRENT HOURLY OBSERVATIONS ACROSS
MUCH OF THE UPPER MISSISSIPPI VALLEY
NATIONAL WEATHER SERVICE LA CROSSE WI
100 PM CDT FRI MAY 06 2016


...SOUTHEAST MINNESOTA...


CITY           SKY/WX    TMP DP  RH WIND       PRES   REMARKS
ROCHESTER      SUNNY     86  43  22 SW16G26   29.86F
ROCHESTER/MAYO FAIR      84  42  22 W13G25    29.85F
WINONA         SUNNY     90  43  19 W7        29.83F
AUSTIN         SUNNY     84  41  21 SW18G25   29.87F
ALBERT LEA     SUNNY     84  39  20 W13G22    29.87F
DODGE CENTER   SUNNY     84  43  23 SW24G30   29.86F
PRESTON        SUNNY     84  38  19 W17G29    29.88F
OWATONNA       SUNNY     88  41  19 W28       29.84F
FARIBAULT      SUNNY     84  48  28 SW14G24   29.84F
$$

...ELSEWHERE IN MINNESOTA...


CITY           SKY/WX    TMP DP  RH WIND       PRES   REMARKS
MINNEAPOLIS    MOSUNNY   85  48  27 SW15      29.79F
INTNL FALLS    SUNNY     85  46  25 NW22G29   29.65S
DULUTH         SUNNY     89  43  20 W20G30    29.70F
RED WING       SUNNY     90  45  20 W13G20    29.79F
REDWOOD FALLS  SUNNY     88  48  25 SW23G37   29.76F
MANKATO        SUNNY     86  45  23 SW24      29.82F
WORTHINGTON    SUNNY     83  51  33 SW29G35   29.86F
FAIRMONT       SUNNY     84  43  23 SW23G32   29.86F
$$

...SOUTHWEST WISCONSIN...


CITY           SKY/WX    TMP DP  RH WIND       PRES   REMARKS
LA CROSSE      SUNNY     86  50  28 VRB6      29.83F
PRAIRIE DU CHI SUNNY     84  42  22 W12G17    29.87F
BOSCOBEL       SUNNY     82  48  30 SW7       29.88F
LONE ROCK      SUNNY     80  47  31 W12       29.88F
PLATTEVILLE    SUNNY     78  47  33 W10G17    29.92F
FORT MC COY    SUNNY     82  47  28 SW9       29.85F
CAMP DOUGLAS   SUNNY     82  50  32 W15G22    29.84F
MAUSTON-NEW LI CLEAR     84  44  24 W14G22    29.84F
VIROQUA        FAIR      81  44  27 W13       29.89F
WIS DELLS      SUNNY     79  42  27 SW10      29.87F
$$

...ELSEWHERE IN WISCONSIN...


CITY           SKY/WX    TMP DP  RH WIND       PRES   REMARKS
MILWAUKEE      MOSUNNY   76  43  30 SW8       29.87F
MADISON        MOSUNNY   75  45  34 SW7       29.87F
GREEN BAY      SUNNY     80  50  34 W10       29.81F
EAU CLAIRE     SUNNY     87  47  24 W16       29.79F
BLACK RVR FLS  FAIR      86  37  17 W12G23    29.82F
MEDFORD        SUNNY     82  46  28 SW13G20   29.81F
WAUSAU         SUNNY     84  44  24 W13       29.80F
WIS RAPIDS     SUNNY     85  40  20 W8        29.84F
MARSHFIELD     SUNNY     86  43  22 W13G23    29.81F
RICE LAKE      SUNNY     86  41  20 SW12G21   29.80F
$$

...NORTHEAST IOWA...


CITY           SKY/WX    TMP DP  RH WIND       PRES   REMARKS
WATERLOO       SUNNY     85  43  22 W18       29.90F
DUBUQUE        SUNNY     77  49  37 SW10      29.93F
DECORAH        SUNNY     84  39  20 W13G28    29.88F
MASON CITY     SUNNY     85  41  21 SW16G25   29.90F
CHARLES CITY   SUNNY     88  36  15 W21G28    29.90F
OELWEIN        SUNNY     84  43  23 W20       29.91F
$$

...ELSEWHERE IN IOWA...


CITY           SKY/WX    TMP DP  RH WIND       PRES   REMARKS
DES MOINES     MOSUNNY   84  44  24 SW17      29.97F
IOWA CITY      SUNNY     81  50  33 W15       29.95F
FORT DODGE     SUNNY     82  45  26 SW17G25   29.93F
MARSHALLTOWN   SUNNY     82  48  30 SW16G26   29.93F
CEDAR RAPIDS   SUNNY     82  51  34 SW15G23   29.93F
$$

...NORTHERN ILLINOIS...


CITY           SKY/WX    TMP DP  RH WIND       PRES   REMARKS
CHICAGO-OHARE  MOSUNNY   74  42  31 SW10      29.90F
CHICAGO-MIDWAY MOSUNNY   73  43  33 S9        29.92F
MOLINE         SUNNY     79  48  33 W12       29.95F
ROCKFORD       SUNNY     77  49  37 W7        29.92F
PEORIA         SUNNY     76  43  30 W9        29.97F
$$

NOTE: "FAIR" INDICATES FEW OR NO CLOUDS BELOW 12,000 FEET WITH NO
SIGNIFICANT WEATHER AND/OR OBSTRUCTIONS TO VISIBILITY. WIND
SPEEDS ARE IN MILES-PER-HOUR.




USA.gov is the U.S. government's official web portal to all federal, state and local government web resources and services.